UAL1894 KOKC-KDEN

Flight info

Callsign UAL1894
Flight time 1h 16m
Altitude 34000
Route STPHN3 ZEEWE KK36A HALEN NIIXX4
Aircraft B738/M-SDE2E3FGHIRWXY/LB1

Departure

Time 2026-04-21 01:33
Airport OKC Will Rogers World Airport (KOKC)

Arrival

Time 2026-04-21 02:50
Airport Denver International Airport (KDEN)
Time Latitude Longitude Altitude Speed Heading
2026-04-21 01:07 35.39576 -97.59898 1298 ft 0 kts 181°
2026-04-21 01:22 35.39595 -97.59897 1299 ft 4 kts 185°
2026-04-21 01:22 35.39618 -97.59893 1299 ft 4 kts 211°
2026-04-21 01:22 35.39631 -97.59871 1300 ft 4 kts 264°
2026-04-21 01:22 35.39632 -97.59849 1300 ft 1 kts 270°
2026-04-21 01:23 35.39632 -97.59847 1300 ft 1 kts 270°
2026-04-21 01:28 35.39632 -97.59858 1300 ft 4 kts 268°
2026-04-21 01:28 35.39632 -97.59922 1298 ft 12 kts 272°
2026-04-21 01:28 35.39615 -97.60049 1294 ft 18 kts 245°
2026-04-21 01:29 35.39565 -97.60180 1291 ft 13 kts 243°
2026-04-21 01:29 35.39577 -97.60275 1291 ft 13 kts 314°
2026-04-21 01:29 35.39644 -97.60346 1289 ft 13 kts 314°
2026-04-21 01:29 35.39734 -97.60400 1289 ft 17 kts 355°
2026-04-21 01:30 35.39859 -97.60400 1290 ft 18 kts
2026-04-21 01:30 35.39981 -97.60402 1291 ft 17 kts 359°
2026-04-21 01:30 35.40096 -97.60406 1294 ft 17 kts 356°
2026-04-21 01:30 35.40209 -97.60404 1295 ft 16 kts
2026-04-21 01:31 35.40317 -97.60400 1296 ft 15 kts 360°
2026-04-21 01:31 35.40422 -97.60401 1296 ft 15 kts 360°
2026-04-21 01:31 35.40521 -97.60402 1295 ft 14 kts 355°
2026-04-21 01:31 35.40565 -97.60431 1295 ft 0 kts 307°
2026-04-21 01:32 35.40578 -97.60471 1295 ft 12 kts 280°
2026-04-21 01:32 35.40557 -97.60568 1295 ft 13 kts 200°
2026-04-21 01:32 35.40496 -97.60573 1295 ft 0 kts 179°
2026-04-21 01:32 35.40465 -97.60573 1294 ft 30 kts 179°
2026-04-21 01:33 35.39938 -97.60572 1290 ft 118 kts 180°
2026-04-21 01:33 35.38878 -97.60571 1455 ft 179 kts 180°
2026-04-21 01:33 35.37539 -97.60683 2125 ft 205 kts 193°
2026-04-21 01:33 35.36186 -97.61345 2956 ft 216 kts 209°
2026-04-21 01:34 35.35024 -97.62531 3929 ft 221 kts 229°
2026-04-21 01:34 35.34505 -97.64350 4641 ft 236 kts 262°
2026-04-21 01:34 35.34693 -97.66358 5445 ft 241 kts 279°
2026-04-21 01:34 35.35186 -97.68332 6167 ft 244 kts 284°
2026-04-21 01:35 35.35743 -97.70308 6888 ft 247 kts 285°
2026-04-21 01:35 35.36314 -97.72316 7444 ft 256 kts 286°
2026-04-21 01:35 35.36915 -97.74461 7853 ft 274 kts 287°
2026-04-21 01:35 35.37323 -97.75949 8356 ft 278 kts 285°
2026-04-21 01:36 35.37937 -97.78179 9418 ft 278 kts 287°
2026-04-21 01:36 35.38771 -97.81234 10372 ft 294 kts 287°
2026-04-21 01:36 35.39416 -97.83616 10587 ft 321 kts 287°
2026-04-21 01:36 35.39894 -97.85398 10948 ft 330 kts 287°
2026-04-21 01:37 35.40617 -97.88106 11676 ft 336 kts 287°
2026-04-21 01:37 35.41341 -97.90816 12488 ft 341 kts 287°
2026-04-21 01:37 35.42083 -97.93595 13290 ft 345 kts 288°
2026-04-21 01:37 35.42836 -97.96417 14081 ft 350 kts 288°
2026-04-21 01:38 35.43597 -97.99279 14707 ft 358 kts 288°
2026-04-21 01:38 35.44391 -98.02185 15514 ft 359 kts 289°
2026-04-21 01:38 35.45226 -98.05061 16411 ft 358 kts 289°
2026-04-21 01:38 35.46077 -98.07942 17244 ft 359 kts 289°
2026-04-21 01:39 35.46930 -98.10827 18029 ft 362 kts 288°
2026-04-21 01:39 35.47787 -98.13741 18728 ft 364 kts 288°
2026-04-21 01:39 35.48644 -98.16671 19425 ft 365 kts 288°
2026-04-21 01:39 35.49503 -98.19619 20096 ft 368 kts 288°
2026-04-21 01:40 35.50367 -98.22595 20683 ft 372 kts 288°
2026-04-21 01:40 35.51238 -98.25606 21267 ft 376 kts 288°
2026-04-21 01:40 35.52116 -98.28646 21862 ft 380 kts 288°
2026-04-21 01:40 35.53002 -98.31717 22444 ft 383 kts 288°
2026-04-21 01:41 35.53894 -98.34817 22990 ft 387 kts 288°
2026-04-21 01:41 35.54782 -98.37905 23600 ft 389 kts 288°
2026-04-21 01:41 35.55684 -98.41049 24145 ft 391 kts 288°
2026-04-21 01:41 35.56592 -98.44212 24676 ft 392 kts 288°
2026-04-21 01:42 35.57504 -98.47393 25162 ft 395 kts 288°
2026-04-21 01:42 35.58419 -98.50592 25624 ft 398 kts 288°
2026-04-21 01:42 35.59341 -98.53813 26086 ft 401 kts 288°
2026-04-21 01:42 35.60267 -98.57056 26558 ft 403 kts 288°
2026-04-21 01:43 35.61196 -98.60313 27031 ft 405 kts 288°
2026-04-21 01:43 35.62127 -98.63582 27475 ft 407 kts 288°
2026-04-21 01:43 35.63064 -98.66877 27912 ft 409 kts 287°
2026-04-21 01:43 35.64003 -98.70181 28347 ft 411 kts 287°
2026-04-21 01:44 35.64933 -98.73454 28892 ft 410 kts 287°
2026-04-21 01:44 35.65867 -98.76746 29557 ft 406 kts 287°
2026-04-21 01:44 35.66794 -98.80014 30215 ft 403 kts 287°
2026-04-21 01:44 35.67712 -98.83260 30680 ft 401 kts 287°
2026-04-21 01:45 35.68628 -98.86504 31063 ft 402 kts 287°
2026-04-21 01:45 35.69548 -98.89763 31434 ft 403 kts 287°
2026-04-21 01:45 35.70466 -98.93021 31899 ft 402 kts 287°
2026-04-21 01:45 35.71380 -98.96267 32334 ft 401 kts 287°
2026-04-21 01:46 35.72293 -98.99513 32728 ft 401 kts 288°
2026-04-21 01:46 35.73205 -99.02761 33112 ft 401 kts 288°
2026-04-21 01:46 35.74116 -99.06010 33517 ft 401 kts 288°
2026-04-21 01:46 35.75024 -99.09250 33929 ft 400 kts 288°
2026-04-21 01:47 35.75932 -99.12491 34144 ft 404 kts 288°
2026-04-21 01:47 35.76850 -99.15779 34138 ft 406 kts 288°
2026-04-21 01:47 35.78672 -99.22310 34130 ft 398 kts 288°
2026-04-21 01:48 35.80450 -99.28701 34151 ft 397 kts 288°
2026-04-21 01:48 35.82241 -99.35154 34138 ft 399 kts 288°
2026-04-21 01:49 35.84037 -99.41639 34138 ft 400 kts 288°
2026-04-21 01:49 35.85834 -99.48143 34152 ft 401 kts 288°
2026-04-21 01:50 35.87627 -99.54645 34131 ft 400 kts 288°
2026-04-21 01:50 35.89411 -99.61132 34125 ft 398 kts 288°
2026-04-21 01:51 35.91183 -99.67590 34125 ft 396 kts 288°
2026-04-21 01:51 35.92943 -99.74024 34120 ft 394 kts 287°
2026-04-21 01:52 35.95553 -99.83596 34116 ft 393 kts 287°
2026-04-21 01:53 35.97290 -99.89983 34122 ft 392 kts 287°
2026-04-21 01:53 35.99066 -99.96367 34114 ft 393 kts 292°
2026-04-21 01:54 36.01970 -100.02106 34117 ft 398 kts 308°
2026-04-21 01:54 36.05970 -100.06877 34108 ft 401 kts 315°
2026-04-21 01:55 36.10108 -100.11463 34107 ft 403 kts 316°
2026-04-21 01:55 36.14280 -100.16123 34107 ft 404 kts 314°
2026-04-21 01:56 36.18455 -100.20817 34110 ft 406 kts 315°
2026-04-21 01:56 36.22634 -100.25548 34095 ft 407 kts 316°
2026-04-21 01:57 36.26801 -100.30282 34099 ft 406 kts 315°
2026-04-21 01:57 36.30941 -100.34993 34076 ft 407 kts 317°
2026-04-21 01:58 36.35180 -100.39822 34105 ft 420 kts 318°
2026-04-21 01:58 36.39528 -100.44783 34096 ft 425 kts 317°
2026-04-21 01:59 36.43861 -100.49736 34079 ft 419 kts 318°
2026-04-21 01:59 36.48094 -100.54582 34091 ft 417 kts 317°
2026-04-21 02:00 36.52367 -100.59482 34097 ft 416 kts 317°
2026-04-21 02:00 36.56661 -100.64415 34085 ft 423 kts 318°
2026-04-21 02:01 36.61009 -100.69417 34087 ft 427 kts 318°
2026-04-21 02:01 36.65381 -100.74455 34063 ft 427 kts 318°
2026-04-21 02:02 36.69695 -100.79436 34061 ft 419 kts 318°
2026-04-21 02:02 36.73984 -100.84391 34069 ft 421 kts 318°
2026-04-21 02:03 36.78255 -100.89337 34067 ft 422 kts 318°
2026-04-21 02:03 36.82566 -100.94335 34064 ft 422 kts 318°
2026-04-21 02:04 36.86860 -100.99321 34064 ft 421 kts 318°
2026-04-21 02:04 36.91142 -101.04298 34063 ft 420 kts 318°
2026-04-21 02:05 36.95409 -101.09269 34062 ft 418 kts 318°
2026-04-21 02:05 36.99567 -101.14123 34054 ft 401 kts 317°
2026-04-21 02:06 37.03633 -101.18871 34060 ft 399 kts 318°
2026-04-21 02:06 37.07713 -101.23648 34054 ft 404 kts 317°
2026-04-21 02:07 37.11833 -101.28476 34049 ft 407 kts 318°
2026-04-21 02:07 37.15963 -101.33317 34050 ft 406 kts 318°
2026-04-21 02:08 37.20064 -101.38134 34042 ft 402 kts 317°
2026-04-21 02:08 37.24110 -101.42896 34043 ft 399 kts 317°
2026-04-21 02:09 37.28153 -101.47666 33992 ft 398 kts 317°
2026-04-21 02:09 37.32185 -101.52431 33986 ft 398 kts 317°
2026-04-21 02:10 37.36238 -101.57228 33995 ft 403 kts 317°
2026-04-21 02:10 37.40307 -101.62048 33984 ft 406 kts 315°
2026-04-21 02:11 37.44427 -101.66944 33997 ft 409 kts 315°
2026-04-21 02:11 37.48579 -101.71888 34016 ft 412 kts 316°
2026-04-21 02:12 37.52748 -101.76853 34004 ft 412 kts 316°
2026-04-21 02:12 37.56861 -101.81760 33999 ft 404 kts 316°
2026-04-21 02:13 37.60937 -101.86633 34006 ft 405 kts 314°
2026-04-21 02:13 37.65054 -101.91545 33979 ft 409 kts 316°
2026-04-21 02:14 37.69196 -101.96517 33987 ft 412 kts 316°
2026-04-21 02:14 37.73355 -102.01524 33967 ft 413 kts 315°
2026-04-21 02:15 37.77459 -102.06475 33943 ft 408 kts 315°
2026-04-21 02:15 37.81583 -102.11449 33948 ft 410 kts 315°
2026-04-21 02:16 37.85647 -102.16553 33936 ft 412 kts 313°
2026-04-21 02:16 37.89547 -102.21865 33926 ft 410 kts 311°
2026-04-21 02:17 37.93383 -102.27118 33925 ft 407 kts 311°
2026-04-21 02:17 37.97244 -102.32360 33935 ft 406 kts 312°
2026-04-21 02:18 38.01095 -102.37601 33945 ft 406 kts 311°
2026-04-21 02:18 38.04943 -102.42841 33964 ft 405 kts 313°
2026-04-21 02:19 38.08787 -102.48084 33967 ft 405 kts 312°
2026-04-21 02:19 38.12622 -102.53324 33960 ft 404 kts 313°
2026-04-21 02:20 38.16445 -102.58558 33965 ft 404 kts 313°
2026-04-21 02:20 38.20268 -102.63792 33961 ft 404 kts 313°
2026-04-21 02:21 38.24092 -102.69026 33952 ft 404 kts 313°
2026-04-21 02:21 38.27918 -102.74271 33951 ft 404 kts 313°
2026-04-21 02:22 38.31722 -102.79505 33928 ft 406 kts 313°
2026-04-21 02:22 38.35555 -102.84790 33935 ft 407 kts 313°
2026-04-21 02:23 38.38755 -102.89210 33924 ft 408 kts 313°
2026-04-21 02:23 38.42604 -102.94540 33936 ft 408 kts 311°
2026-04-21 02:24 38.46458 -102.99882 33924 ft 408 kts 311°
2026-04-21 02:24 38.50277 -103.05185 33751 ft 409 kts 311°
2026-04-21 02:24 38.52214 -103.07880 33455 ft 402 kts 311°
2026-04-21 02:25 38.54072 -103.10466 33063 ft 397 kts 311°
2026-04-21 02:25 38.55929 -103.13052 32671 ft 393 kts 312°
2026-04-21 02:25 38.57765 -103.15613 32283 ft 389 kts 312°
2026-04-21 02:25 38.59588 -103.18157 31900 ft 386 kts 312°
2026-04-21 02:26 38.61392 -103.20675 31524 ft 382 kts 311°
2026-04-21 02:26 38.63183 -103.23177 31152 ft 379 kts 312°
2026-04-21 02:26 38.64959 -103.25663 30786 ft 376 kts 312°
2026-04-21 02:26 38.66715 -103.28121 30421 ft 373 kts 312°
2026-04-21 02:27 38.68461 -103.30568 30057 ft 370 kts 312°
2026-04-21 02:27 38.70193 -103.32997 29633 ft 368 kts 312°
2026-04-21 02:27 38.71910 -103.35407 29233 ft 364 kts 312°
2026-04-21 02:27 38.73603 -103.37788 28861 ft 360 kts 312°
2026-04-21 02:28 38.75261 -103.40121 28439 ft 357 kts 312°
2026-04-21 02:28 38.76927 -103.42469 28129 ft 353 kts 312°
2026-04-21 02:28 38.78572 -103.44785 27861 ft 352 kts 312°
2026-04-21 02:28 38.80233 -103.47124 27608 ft 354 kts 312°
2026-04-21 02:29 38.81881 -103.49451 27259 ft 351 kts 311°
2026-04-21 02:29 38.83516 -103.51758 26880 ft 348 kts 312°
2026-04-21 02:29 38.85142 -103.54053 26511 ft 346 kts 312°
2026-04-21 02:29 38.86755 -103.56331 26132 ft 344 kts 312°
2026-04-21 02:30 38.88360 -103.58602 25776 ft 342 kts 312°
2026-04-21 02:30 38.89954 -103.60861 25407 ft 340 kts 312°
2026-04-21 02:30 38.91538 -103.63108 25047 ft 339 kts 312°
2026-04-21 02:30 38.93120 -103.65356 24675 ft 338 kts 312°
2026-04-21 02:31 38.94694 -103.67595 24314 ft 337 kts 312°
2026-04-21 02:31 38.96263 -103.69829 23935 ft 337 kts 312°
2026-04-21 02:31 38.97827 -103.72056 23571 ft 336 kts 312°
2026-04-21 02:31 38.99393 -103.74285 23155 ft 335 kts 312°
2026-04-21 02:32 39.00953 -103.76504 22775 ft 333 kts 312°
2026-04-21 02:32 39.02497 -103.78706 22398 ft 331 kts 312°
2026-04-21 02:32 39.04034 -103.80896 22027 ft 329 kts 312°
2026-04-21 02:32 39.05539 -103.83043 21671 ft 326 kts 312°
2026-04-21 02:33 39.07059 -103.85199 21314 ft 324 kts 313°
2026-04-21 02:33 39.08564 -103.87337 21055 ft 319 kts 313°
2026-04-21 02:33 39.10033 -103.89403 21072 ft 309 kts 313°
2026-04-21 02:33 39.11512 -103.91473 20439 ft 319 kts 312°
2026-04-21 02:34 39.12998 -103.93593 19995 ft 320 kts 311°
2026-04-21 02:34 39.14467 -103.95731 19636 ft 318 kts 311°
2026-04-21 02:34 39.15938 -103.97882 19222 ft 319 kts 310°
2026-04-21 02:34 39.17401 -104.00022 18862 ft 317 kts 310°
2026-04-21 02:35 39.18856 -104.02149 18508 ft 316 kts 310°
2026-04-21 02:35 39.20304 -104.04267 18139 ft 314 kts 310°
2026-04-21 02:35 39.21732 -104.06354 17752 ft 313 kts 310°
2026-04-21 02:35 39.23167 -104.08455 17367 ft 311 kts 310°
2026-04-21 02:36 39.24595 -104.10546 17015 ft 309 kts 311°
2026-04-21 02:36 39.26021 -104.12632 16671 ft 308 kts 311°
2026-04-21 02:36 39.27437 -104.14701 16327 ft 306 kts 311°
2026-04-21 02:36 39.28848 -104.16761 15989 ft 305 kts 311°
2026-04-21 02:37 39.30087 -104.18920 15611 ft 303 kts 294°
2026-04-21 02:37 39.30689 -104.21502 15328 ft 299 kts 283°
2026-04-21 02:37 39.31122 -104.24139 14966 ft 302 kts 281°
2026-04-21 02:37 39.31521 -104.26822 14641 ft 306 kts 279°
2026-04-21 02:38 39.31934 -104.29539 14257 ft 312 kts 279°
2026-04-21 02:38 39.32361 -104.32298 13907 ft 314 kts 281°
2026-04-21 02:38 39.32792 -104.35061 13516 ft 314 kts 280°
2026-04-21 02:38 39.33225 -104.37816 13288 ft 308 kts 281°
2026-04-21 02:39 39.33651 -104.40497 13132 ft 300 kts 280°
2026-04-21 02:39 39.34065 -104.43100 12987 ft 292 kts 280°
2026-04-21 02:39 39.34466 -104.45658 12744 ft 289 kts 281°
2026-04-21 02:39 39.34861 -104.48196 12474 ft 287 kts 282°
2026-04-21 02:40 39.35249 -104.50670 12289 ft 281 kts 282°
2026-04-21 02:40 39.35631 -104.53109 12170 ft 273 kts 282°
2026-04-21 02:40 39.36004 -104.55487 12041 ft 267 kts 282°
2026-04-21 02:40 39.36369 -104.57812 11927 ft 260 kts 281°
2026-04-21 02:41 39.36911 -104.59991 11887 ft 251 kts 300°
2026-04-21 02:41 39.37827 -104.61880 11939 ft 247 kts 302°
2026-04-21 02:41 39.38804 -104.63719 11960 ft 252 kts 315°
2026-04-21 02:41 39.40279 -104.64973 11980 ft 258 kts 333°
2026-04-21 02:42 39.41886 -104.66030 11973 ft 259 kts 334°
2026-04-21 02:42 39.43600 -104.66644 11969 ft 256 kts 358°
2026-04-21 02:42 39.45369 -104.66561 11978 ft 254 kts
2026-04-21 02:42 39.47131 -104.66466 11980 ft 253 kts
2026-04-21 02:43 39.48891 -104.66448 11981 ft 253 kts
2026-04-21 02:43 39.50700 -104.66434 11654 ft 265 kts
2026-04-21 02:43 39.52542 -104.66411 11322 ft 264 kts
2026-04-21 02:43 39.54362 -104.66390 10984 ft 259 kts 360°
2026-04-21 02:44 39.56140 -104.66369 10632 ft 253 kts 359°
2026-04-21 02:44 39.57880 -104.66348 10277 ft 248 kts
2026-04-21 02:44 39.59591 -104.66324 9959 ft 243 kts
2026-04-21 02:44 39.61257 -104.66304 9628 ft 242 kts
2026-04-21 02:45 39.62938 -104.66286 9321 ft 239 kts
2026-04-21 02:45 39.64578 -104.66268 8998 ft 233 kts
2026-04-21 02:45 39.66178 -104.66248 8692 ft 226 kts
2026-04-21 02:45 39.67711 -104.66231 8396 ft 214 kts
2026-04-21 02:46 39.69148 -104.66214 8130 ft 200 kts
2026-04-21 02:46 39.70500 -104.66198 7886 ft 188 kts
2026-04-21 02:46 39.71779 -104.66183 7637 ft 177 kts
2026-04-21 02:46 39.72962 -104.66167 7401 ft 165 kts
2026-04-21 02:47 39.74098 -104.66152 7213 ft 163 kts
2026-04-21 02:47 39.75197 -104.66141 7002 ft 159 kts
2026-04-21 02:47 39.76294 -104.66077 6759 ft 156 kts 14°
2026-04-21 02:47 39.77373 -104.66010 6517 ft 155 kts
2026-04-21 02:48 39.78442 -104.66088 6322 ft 151 kts
2026-04-21 02:48 39.79480 -104.66114 6106 ft 147 kts
2026-04-21 02:48 39.80502 -104.66077 5913 ft 148 kts
2026-04-21 02:48 39.81532 -104.66071 5726 ft 146 kts
2026-04-21 02:49 39.82525 -104.66065 5483 ft 143 kts
2026-04-21 02:49 39.83473 -104.66045 5358 ft 124 kts
2026-04-21 02:49 39.84186 -104.66039 5372 ft 81 kts 360°
2026-04-21 02:49 39.84702 -104.66047 5375 ft 67 kts 351°
2026-04-21 02:50 39.84978 -104.66210 5375 ft 0 kts 332°
2026-04-21 02:50 39.84981 -104.66212 5376 ft 3 kts 332°
2026-04-21 02:51 39.85034 -104.66237 5378 ft 14 kts 347°
2026-04-21 02:51 39.85145 -104.66243 5381 ft 17 kts
2026-04-21 02:51 39.85258 -104.66240 5383 ft 16 kts
2026-04-21 02:51 39.85367 -104.66239 5386 ft 15 kts
2026-04-21 02:52 39.85471 -104.66237 5389 ft 15 kts
2026-04-21 02:52 39.85572 -104.66261 5389 ft 15 kts 309°
2026-04-21 02:52 39.85585 -104.66396 5387 ft 15 kts 268°
2026-04-21 02:52 39.85590 -104.66472 5383 ft 1 kts 314°
2026-04-21 02:53 39.85595 -104.66478 5384 ft 1 kts 319°
2026-04-21 02:53 39.85601 -104.66483 5384 ft 1 kts 328°
2026-04-21 02:53 39.85641 -104.66503 5386 ft 13 kts 355°
2026-04-21 02:53 39.85736 -104.66550 5384 ft 12 kts 340°
2026-04-21 02:54 39.85749 -104.66555 5383 ft 0 kts 342°